• In Russia
  • List of Countries
  • For 7 days
  • Water Temperature
  • Satellite Maps
  • Weather Map
  • Weather Widgets
  • user-avatar
    Login

    Hourly Weather Bludenz

    Today, 25 April, Thursday

    Time Temperature Precipitation Wind Pressure Humidity
    00:00 +8°C° 0 mm 4 mps 698 mmHg 71%
    01:00 +10°C° 0 mm 4 mps 698 mmHg 72%
    02:00 +10°C° 0 mm 4 mps 698 mmHg 72%
    03:00 +10°C° 0 mm 4 mps 698 mmHg 72%
    04:00 +8°C° 0 mm 4 mps 698 mmHg 72%
    05:00 +10°C° 0 mm 4 mps 698 mmHg 70%
    06:00 +11°C° 0 mm 4 mps 698 mmHg 68%
    07:00 +11°C° 0 mm 6 mps 698 mmHg 60%
    08:00 +13°C° 0 mm 5 mps 699 mmHg 55%
    09:00 +15°C° 0 mm 5 mps 699 mmHg 50%
    10:00 +16°C° 0 mm 5 mps 699 mmHg 45%
    11:00 +17°C° 0 mm 5 mps 698 mmHg 43%
    12:00 +19°C° 0 mm 5 mps 698 mmHg 41%
    13:00 +20°C° 0 mm 6 mps 698 mmHg 40%
    14:00 +20°C° 0 mm 6 mps 698 mmHg 42%
    15:00 +19°C° 0 mm 6 mps 698 mmHg 44%
    16:00 +19°C° 0 mm 6 mps 697 mmHg 46%
    17:00 +17°C° 0 mm 5 mps 697 mmHg 53%
    18:00 +15°C° 0 mm 5 mps 697 mmHg 59%
    19:00 +14°C° 0 mm 4 mps 697 mmHg 65%
    20:00 +13°C° 0 mm 4 mps 697 mmHg 67%
    21:00 +12°C° 0 mm 4 mps 697 mmHg 69%
    22:00 +11°C° 0 mm 4 mps 697 mmHg 71%
    23:00 +11°C° 0 mm 4 mps 697 mmHg 72%

    Tomorrow, 26 April, Friday

    Time Temperature Precipitation Wind Pressure Humidity
    00:00 +10°C° 0 mm 3 mps 697 mmHg 73%
    01:00 +10°C° 0 mm 3 mps 697 mmHg 74%
    02:00 +10°C° 0 mm 3 mps 697 mmHg 75%
    03:00 +10°C° 0 mm 3 mps 696 mmHg 76%
    04:00 +9°C° 0 mm 2 mps 696 mmHg 77%
    05:00 +10°C° 0 mm 2 mps 696 mmHg 76%
    06:00 +12°C° 0 mm 2 mps 696 mmHg 75%
    07:00 +13°C° 0 mm 1 mps 697 mmHg 74%
    08:00 +12°C° 1.3 mm 2 mps 697 mmHg 80%
    09:00 +10°C° 1.3 mm 2 mps 697 mmHg 86%
    10:00 +9°C° 1.3 mm 3 mps 697 mmHg 92%
    11:00 +8°C° 2.2 mm 3 mps 698 mmHg 93%
    12:00 +7°C° 2.2 mm 2 mps 698 mmHg 95%
    13:00 +6°C° 2.2 mm 2 mps 699 mmHg 96%
    14:00 +6°C° 1.2 mm 2 mps 699 mmHg 95%
    15:00 +6°C° 1.2 mm 2 mps 699 mmHg 95%
    16:00 +5°C° 1.2 mm 2 mps 700 mmHg 95%
    17:00 +6°C° 0.2 mm 1 mps 700 mmHg 95%
    18:00 +6°C° 0.2 mm 1 mps 700 mmHg 95%
    19:00 +6°C° 0.2 mm 1 mps 700 mmHg 95%
    20:00 +6°C° 0.1 mm 1 mps 701 mmHg 94%
    21:00 +5°C° 0.1 mm 1 mps 701 mmHg 94%
    22:00 +5°C° 0.1 mm 1 mps 701 mmHg 93%
    23:00 +5°C° 0.1 mm 1 mps 702 mmHg 93%

    Day after tomorrow, 27 April, Saturday

    Time Temperature Precipitation Wind Pressure Humidity
    00:00 +4°C° 0.1 mm 1 mps 702 mmHg 92%
    01:00 +4°C° 0.1 mm 1 mps 702 mmHg 92%
    02:00 +4°C° 0 mm 1 mps 702 mmHg 91%
    03:00 +4°C° 0 mm 1 mps 702 mmHg 91%
    04:00 +3°C° 0 mm 1 mps 702 mmHg 90%
    05:00 +4°C° 0 mm 1 mps 702 mmHg 89%
    06:00 +5°C° 0 mm 1 mps 702 mmHg 88%
    07:00 +5°C° 0 mm 2 mps 702 mmHg 86%
    08:00 +8°C° 0 mm 1 mps 702 mmHg 82%
    09:00 +9°C° 0 mm 1 mps 702 mmHg 77%
    10:00 +11°C° 0 mm 1 mps 702 mmHg 73%
    11:00 +12°C° 0.1 mm 1 mps 701 mmHg 72%
    12:00 +12°C° 0.1 mm 1 mps 701 mmHg 72%
    13:00 +13°C° 0.1 mm 1 mps 701 mmHg 72%
    14:00 +12°C° 0.4 mm 2 mps 700 mmHg 76%
    15:00 +12°C° 0.4 mm 2 mps 700 mmHg 80%
    16:00 +10°C° 0.4 mm 2 mps 700 mmHg 85%
    17:00 +9°C° 1.1 mm 2 mps 700 mmHg 89%
    18:00 +8°C° 1.1 mm 2 mps 700 mmHg 94%
    19:00 +7°C° 1.1 mm 2 mps 700 mmHg 98%
    20:00 +6°C° 2.3 mm 2 mps 701 mmHg 98%
    21:00 +5°C° 2.3 mm 2 mps 701 mmHg 97%
    22:00 +4°C° 2.3 mm 2 mps 702 mmHg 97%
    23:00 +4°C° 0.9 mm 2 mps 702 mmHg 97%

    28 April, Sunday

    Time Temperature Precipitation Wind Pressure Humidity
    00:00 +5°C° 0.9 mm 1 mps 702 mmHg 97%
    01:00 +4°C° 0.9 mm 1 mps 702 mmHg 97%
    02:00 +4°C° 0.6 mm 1 mps 702 mmHg 97%
    03:00 +4°C° 0.6 mm 1 mps 702 mmHg 97%
    04:00 +4°C° 0.6 mm 1 mps 701 mmHg 97%
    05:00 +4°C° 0.4 mm 1 mps 701 mmHg 97%
    06:00 +3°C° 0.4 mm 2 mps 701 mmHg 96%
    07:00 +3°C° 0.4 mm 2 mps 701 mmHg 96%
    08:00 +4°C° 0.4 mm 2 mps 701 mmHg 94%
    09:00 +4°C° 0.4 mm 2 mps 701 mmHg 91%
    10:00 +5°C° 0.4 mm 2 mps 701 mmHg 89%
    11:00 +5°C° 0.3 mm 2 mps 701 mmHg 88%
    12:00 +6°C° 0.3 mm 2 mps 700 mmHg 88%
    13:00 +6°C° 0.3 mm 2 mps 700 mmHg 87%
    14:00 +6°C° 0.5 mm 2 mps 700 mmHg 88%
    15:00 +6°C° 0.5 mm 2 mps 700 mmHg 89%
    16:00 +6°C° 0.5 mm 2 mps 700 mmHg 91%
    17:00 +6°C° 0.5 mm 2 mps 700 mmHg 92%
    18:00 +6°C° 0.5 mm 1 mps 700 mmHg 94%
    19:00 +5°C° 0.5 mm 1 mps 700 mmHg 95%
    20:00 +4°C° 0.1 mm 1 mps 701 mmHg 96%
    21:00 +4°C° 0.1 mm 1 mps 701 mmHg 96%
    22:00 +2°C° 0.1 mm 0 mps 702 mmHg 96%
    23:00 +2°C° 0.1 mm 0 mps 701 mmHg 96%

    29 April, Monday

    Time Temperature Precipitation Wind Pressure Humidity
    00:00 +1°C° 0.1 mm 0 mps 701 mmHg 96%
    01:00 +1°C° 0.1 mm 0 mps 701 mmHg 96%
    02:00 +1°C° 0.2 mm 0 mps 701 mmHg 96%
    03:00 +1°C° 0.2 mm 0 mps 701 mmHg 95%
    04:00 +2°C° 0.2 mm 0 mps 701 mmHg 95%
    05:00 +2°C° 0.3 mm 0 mps 701 mmHg 95%
    06:00 +4°C° 0.3 mm 1 mps 701 mmHg 95%
    07:00 +4°C° 0.3 mm 1 mps 701 mmHg 95%
    08:00 +5°C° 0.3 mm 1 mps 701 mmHg 94%
    09:00 +6°C° 0.3 mm 1 mps 701 mmHg 93%
    10:00 +6°C° 0.3 mm 2 mps 701 mmHg 92%
    11:00 +6°C° 0.2 mm 2 mps 701 mmHg 93%
    12:00 +6°C° 0.2 mm 2 mps 701 mmHg 93%
    13:00 +7°C° 0.2 mm 2 mps 700 mmHg 93%
    14:00 +7°C° 0.1 mm 2 mps 700 mmHg 92%
    15:00 +9°C° 0.1 mm 1 mps 700 mmHg 90%
    16:00 +9°C° 0.1 mm 1 mps 700 mmHg 89%
    17:00 +9°C° 0.1 mm 1 mps 700 mmHg 91%
    18:00 +8°C° 0.1 mm 1 mps 700 mmHg 93%
    19:00 +7°C° 0.1 mm 1 mps 700 mmHg 94%
    20:00 +7°C° 0 mm 1 mps 701 mmHg 94%
    21:00 +6°C° 0 mm 1 mps 701 mmHg 95%
    22:00 +5°C° 0 mm 0 mps 702 mmHg 95%
    23:00 +5°C° 0 mm 1 mps 701 mmHg 94%

    30 April, Tuesday

    Time Temperature Precipitation Wind Pressure Humidity
    00:00 +5°C° 0 mm 1 mps 701 mmHg 94%
    01:00 +4°C° 0 mm 1 mps 701 mmHg 94%
    02:00 +4°C° 0 mm 1 mps 701 mmHg 93%
    03:00 +3°C° 0 mm 2 mps 700 mmHg 92%
    04:00 +2°C° 0 mm 2 mps 700 mmHg 92%
    05:00 +3°C° 0 mm 2 mps 700 mmHg 90%
    06:00 +5°C° 0 mm 1 mps 700 mmHg 89%
    07:00 +6°C° 0 mm 1 mps 700 mmHg 87%
    08:00 +8°C° 0 mm 1 mps 699 mmHg 86%
    09:00 +9°C° 0 mm 1 mps 699 mmHg 84%
    10:00 +11°C° 0 mm 1 mps 699 mmHg 83%
    11:00 +11°C° 0 mm 1 mps 699 mmHg 82%
    12:00 +12°C° 0 mm 1 mps 698 mmHg 82%
    13:00 +12°C° 0 mm 1 mps 698 mmHg 82%
    14:00 +12°C° 0.1 mm 1 mps 698 mmHg 83%
    15:00 +12°C° 0.1 mm 1 mps 698 mmHg 84%
    16:00 +12°C° 0.1 mm 1 mps 697 mmHg 85%
    17:00 +11°C° 0.1 mm 1 mps 697 mmHg 89%
    18:00 +10°C° 0.1 mm 1 mps 697 mmHg 93%
    19:00 +9°C° 0.1 mm 1 mps 697 mmHg 97%
    20:00 +9°C° 0 mm 1 mps 697 mmHg 97%
    21:00 +8°C° 0 mm 1 mps 698 mmHg 97%
    22:00 +8°C° 0 mm 1 mps 698 mmHg 97%
    23:00 +7°C° 0 mm 1 mps 698 mmHg 96%
    Show more